Terminal Aerodrome Forecast
Issued by NWS

Current Version | Previous Version | Graphics & Text | Print | Product List | Glossary On
Versions: 1 2 3 4 5 6 7 8 9 10 11 12 13 14 15 16 17 18 19 20 21 22 23 24 25 26 27 28 29 30 31 32 33 34 35 36 37 38 39 40 41 42
000
FTUS41 KRNK 282336
TAFLWB
TAF
KLWB 282336Z 2900/2924 00000KT P6SM OVC120
      TEMPO 2902/2906 -RA
     FM290600 00000KT P6SM SCT060 OVC080
     FM291600 VRB03KT 6SM -RA SCT028 OVC035=

USA.gov is the U.S. government's official web portal to all federal, state and local government web resources and services.